星链-4012 (STARLINK-4012 )

导读

STARLINK-4012是美国SpaceX公司星链(Starlink)星座的成员卫星,于2022年5月14日发射升空,作为星链互联网星座的组网卫星,它旨在为全球各个地区,尤其是偏远覆盖不足区域提供高速卫星互联网接入服务,延续了星链卫星批量部署、低轨运行的特点,助力SpaceX完成全球卫星互联网组网布局。

Basic Information
目录编号:
52602
目录名称:
STARLINK-4012
国际标识:
2022-052E
轨道中心:
EARTH
卫星名称:
星链-4012
卫星全名:
星链-4012 (STARLINK-4012 )
卫星状态:
在轨 (已飞行1495 天)
发射日期:
2022-05-14 UTC
国别 :
美国 (US)
星等 :
--
Orbit Information
数据来源 国际轨道数据 AOE轨道数据
星历时间 2026-06-16T16:39:40+0800
1天前
查看轨道信息
2026-06-16T02:00:00+0800
1天前
查看轨道信息
半长轴 6917.911km 6917.925km
偏心率 0.0001196 0.0001322
轨道倾角 53.160° 53.159°
近地点辐角 84.216° 76.013°
升交点赤经 196.077° 198.828°
平近点角 275.897° 204.106°
近地点 538.946km 538.873km
远地点 540.602km 540.703km
周期 95.438分钟 95.438分钟
每日圈数 15.088302 15.088257
Detailed Information
固有亮度:
5
最大亮度:
2.5
卫星平台:
Starlink v1.5
覆盖范围:
全球
运营商:
太空探索技术公司
运营商所在国:
美国
制造商(研发单位):
太空探索技术公司
制造商所在国:
美国
使用方式:
暂无
Satellite Introduction
星链(Starlink)计划是由太空探索技术公司(SpaceX)提出的一个巨型低轨卫星互联网星座项目,计划在2019年至2024年间在太空搭建由约1.2万颗卫星组成的“星链”网络,其中1584颗将部署在地球上空550千米处的近地轨道,并从2020年开始工作。该卫星仍在工作。
2D Orbit Map
3D Orbit Map
Orbit Altitude Analysis Chart
Orbit Inclination Analysis Chart
Orbit Comprehensive Analysis Chart
View Comprehensive Chart